Probability
23 24 26 23 16 13 12 10 9 8 7 6 4 2 1 4 7 9 9 9 8 6 4 1 1 3 5 6 6 5 5 4 3 3 3 4 7 7 7 7 6 6 9
24 24 24 21 16 13 12 11 9 9 8 7 5 3 2 4 7 9 9 8 7 5 3 1 1 3 5 6 6 6 5 3 3 2 2 4 6 7 8 9 8 8 10
24 23 21 20 18 15 13 11 10 10 10 8 5 4 3 3 6 9 8 6 5 4 3 2 3 4 4 5 7 7 5 3 3 3 3 4 6 9 10 10 10 10 10
23 23 22 22 20 16 13 11 11 11 9 7 5 5 4 3 4 6 6 4 3 4 4 4 4 3 2 4 7 7 5 4 3 4 5 5 8 13 15 12 10 9 9
25 24 24 25 22 17 14 13 12 11 8 5 4 5 5 3 3 4 5 4 4 4 4 4 3 2 2 4 7 6 5 4 3 4 5 5 9 16 18 14 10 8 8
25 23 24 27 24 19 16 15 14 12 9 6 4 4 6 6 6 6 6 6 5 4 3 3 2 2 3 5 7 6 5 3 3 4 5 6 11 17 19 15 11 8 8
20 20 21 26 28 23 19 18 17 15 13 9 6 6 9 12 12 12 12 11 8 6 4 2 2 3 4 6 8 7 5 2 2 4 4 7 13 19 19 15 12 9 7
16 17 19 22 26 23 20 18 17 17 16 13 11 11 14 16 17 17 16 13 10 7 5 3 3 4 5 7 9 8 6 3 2 2 4 8 15 21 19 15 12 9 7
16 17 16 15 17 18 17 17 17 18 18 17 15 15 15 16 16 15 13 11 8 5 4 4 5 5 5 7 9 9 7 4 2 2 3 8 17 22 19 14 11 9 8
17 18 15 11 10 12 15 18 19 20 22 21 17 14 13 12 11 10 9 10 8 5 2 3 5 6 7 8 9 8 7 5 2 3 5 9 18 22 19 16 14 11 10
18 18 16 11 10 11 15 19 20 21 23 22 17 14 14 12 9 8 10 15 15 9 4 3 5 6 8 9 9 7 5 3 1 2 5 10 17 20 19 18 16 13 11
17 17 14 12 12 13 16 18 18 19 20 18 16 17 20 19 14 12 17 23 22 14 7 5 6 6 8 10 10 8 5 2 1 1 5 12 19 21 19 18 16 12 10
17 16 13 14 14 13 16 19 17 17 16 14 15 19 23 25 23 20 23 27 26 19 13 11 11 9 8 11 12 9 5 3 2 2 7 18 25 22 18 16 14 11 10
20 19 18 18 17 16 18 20 19 16 14 14 17 21 24 26 27 26 25 26 25 22 19 18 15 11 9 11 11 9 6 5 4 4 10 24 29 24 17 14 12 11 11
26 26 25 24 22 21 21 19 18 16 14 16 20 23 23 23 25 25 25 25 23 22 22 20 16 13 12 12 10 8 8 8 7 6 12 23 28 25 18 13 11 11 11
34 33 30 25 24 24 21 17 16 15 16 18 21 21 20 19 20 21 22 22 22 22 22 19 17 16 16 14 12 11 11 11 11 10 12 19 24 25 20 15 13 11 10
41 39 32 25 23 25 22 18 17 17 18 20 21 20 19 18 18 19 17 16 18 20 20 19 19 19 19 17 16 14 13 14 14 13 13 14 17 18 17 15 15 14 12
42 39 33 26 26 28 26 23 22 22 22 22 22 22 21 20 19 18 15 13 15 17 17 17 18 19 19 17 16 14 14 15 15 13 11 11 11 10 11 13 16 17 17
38 37 34 33 33 32 30 28 27 27 27 26 24 23 23 22 20 17 15 14 15 16 15 14 16 18 17 15 12 10 12 16 15 11 9 9 8 8 9 12 15 16 17
37 37 37 38 38 36 32 31 29 29 28 26 23 22 24 24 20 17 15 13 14 16 16 16 16 16 15 13 8 7 11 15 15 12 9 8 9 10 10 10 11 12 13
37 38 37 37 37 36 33 30 28 28 27 24 20 19 23 25 22 17 13 11 12 15 17 17 15 13 13 11 8 7 9 11 13 12 10 9 9 10 9 9 8 8 8
35 35 35 34 34 32 30 28 27 26 25 22 19 18 20 23 21 15 12 12 13 14 15 14 12 10 8 8 8 8 9 9 10 10 10 10 9 8 7 7 8 8 6
29 31 32 33 33 31 28 26 25 24 22 20 19 18 18 19 17 13 11 12 13 13 13 13 11 8 6 5 7 9 9 9 8 9 9 9 8 8 7 7 9 8 6
26 27 30 33 34 32 29 26 25 23 21 19 18 17 17 15 13 11 11 12 12 12 11 11 10 8 5 4 5 7 8 8 7 6 7 6 7 7 7 7 8 9 10
25 25 26 31 33 32 29 27 26 23 21 19 18 17 15 14 12 11 11 10 10 10 10 9 9 7 5 4 4 4 5 6 5 3 2 2 4 6 6 6 7 10 12
24 23 24 27 30 30 28 27 26 23 20 19 18 16 14 13 13 11 10 9 9 9 9 8 7 6 5 4 4 4 4 4 2 1 0 0 2 5 7 6 7 11 12
Wind_Speed
12 15 15 13 11 9 8 8 8 8 8 8 8 7 7 8 8 8 9 9 9 9 9 8 7 6 6 6 6 6 6 6 6 6 6 7 7 6 7 6 5 6 9
14 15 15 13 11 9 8 8 8 8 8 8 7 7 7 7 7 7 7 7 7 7 7 7 6 6 5 5 5 5 5 4 4 4 4 4 6 6 6 6 7 5 8
14 14 13 12 11 9 8 8 7 8 8 7 7 7 7 7 7 7 6 6 6 6 6 6 5 5 4 4 3 3 3 3 2 3 4 4 5 8 7 6 7 6 7
13 13 12 12 10 9 8 7 7 7 8 7 7 7 7 6 6 6 6 5 5 5 6 5 4 4 3 3 2 2 2 3 3 4 4 3 5 9 8 7 6 5 5
12 13 13 12 10 9 8 7 7 7 7 7 6 7 6 6 6 6 6 5 5 5 5 4 4 4 3 3 2 2 3 4 5 6 4 2 4 9 9 8 6 5 4
13 13 12 12 10 8 7 7 7 7 7 7 6 6 6 6 6 6 6 5 5 4 4 4 4 4 4 4 4 4 5 6 7 6 4 3 4 8 8 7 6 5 4
13 13 12 11 10 8 7 7 7 7 6 6 6 6 6 6 6 6 6 5 5 4 4 4 4 4 4 5 5 5 6 7 7 5 3 3 6 9 8 7 6 6 5
12 12 11 11 10 8 8 7 7 6 6 5 5 6 6 6 6 6 6 6 6 5 5 5 5 5 5 6 6 6 7 8 7 6 3 4 8 10 8 7 6 6 5
11 9 9 8 8 8 8 8 7 6 6 6 5 5 6 7 7 7 7 7 7 6 6 6 6 6 6 7 7 8 8 9 8 5 3 4 9 9 9 7 7 7 6
9 8 7 7 6 6 6 8 8 7 7 6 6 6 7 7 8 8 8 8 8 8 8 8 8 8 8 8 9 9 10 9 8 6 2 5 9 9 8 7 7 7 7
8 7 6 6 4 3 5 6 7 7 7 7 7 8 7 6 7 7 9 9 10 9 9 9 9 9 9 10 11 11 10 6 8 4 2 7 9 9 8 7 7 7 7
6 5 5 5 3 2 3 4 3 4 5 4 3 4 5 4 4 5 7 10 11 10 10 11 11 10 9 6 9 10 6 9 7 3 4 10 10 9 8 7 7 7 7
5 4 5 4 3 2 2 2 1 1 3 3 2 3 3 2 2 1 2 4 6 8 7 7 8 7 6 5 4 5 7 7 3 3 5 10 10 9 9 8 8 8 8
5 3 4 4 3 2 2 1 1 1 1 1 2 2 2 1 1 1 1 2 3 3 3 3 3 4 5 4 5 5 6 4 2 2 4 10 10 10 10 10 9 8 8
4 3 4 4 3 2 2 0 1 1 0 1 2 1 1 1 1 1 1 2 3 2 3 3 3 4 4 4 4 5 4 4 3 2 4 9 10 10 11 11 10 10 9
4 4 3 3 3 2 1 0 0 1 1 1 1 1 1 1 0 1 2 2 2 2 2 3 3 3 3 3 4 4 3 4 2 2 3 6 10 11 11 11 11 10 10
4 4 2 2 3 2 1 1 1 1 1 0 1 1 1 1 1 2 2 2 2 2 3 3 3 2 3 3 3 4 3 3 3 3 3 3 5 9 11 11 11 11 10
4 3 2 1 2 2 1 1 1 1 1 1 0 1 1 1 2 2 2 2 2 2 2 2 2 2 3 3 2 3 3 3 4 4 4 4 4 5 9 12 11 11 11
4 3 2 2 2 1 0 0 1 1 1 1 1 1 1 1 2 2 2 2 3 2 2 3 2 2 2 3 3 3 3 3 3 4 4 4 4 4 5 9 13 12 12
3 3 2 1 1 1 0 0 1 1 1 0 1 1 1 1 2 2 2 3 3 2 2 2 2 2 2 2 4 3 3 3 3 4 5 4 4 5 5 6 7 8 12
3 2 2 1 1 0 0 1 1 1 1 1 1 1 1 2 2 2 3 3 3 3 3 3 3 3 3 2 2 3 3 4 3 3 3 3 3 4 4 4 4 4 5
3 2 2 2 1 1 0 1 2 2 2 2 1 1 2 2 2 3 2 3 3 3 3 3 3 3 3 3 2 2 2 3 3 5 4 4 4 3 4 5 4 5 4
2 2 2 2 1 1 1 1 1 2 2 1 1 1 1 2 3 3 3 3 3 3 3 3 4 4 3 3 3 2 2 2 2 2 4 3 4 3 3 4 5 5 5
2 2 2 2 1 1 1 2 2 2 3 2 2 1 2 3 3 3 3 4 3 3 3 4 4 3 4 4 3 3 3 2 2 1 2 3 4 4 4 4 5 4 4
2 2 2 2 0 1 1 2 2 3 2 2 2 2 3 3 3 4 3 3 3 3 3 4 3 4 3 4 3 3 3 3 3 2 3 3 3 3 3 3 3 3 4
2 2 2 1 0 1 2 2 2 2 3 3 3 3 3 2 3 3 3 3 3 3 4 4 4 5 4 4 4 3 2 2 3 2 3 3 3 3 3 2 3 3 3
Wind_Direction
107 116 118 113 113 115 118 121 126 126 127 127 124 122 119 114 109 106 106 108 112 113 116 116 115 111 105 98 97 100 97 96 93 101 108 110 115 112 104 103 109 106 104
110 118 117 115 116 119 122 123 129 131 134 133 135 133 132 127 123 119 116 117 119 122 123 122 119 113 109 106 104 105 108 108 112 126 140 146 144 132 118 107 100 105 110
110 120 118 115 117 120 125 127 130 135 140 141 142 144 141 136 135 132 129 128 129 132 132 131 130 125 121 119 121 124 132 143 165 187 204 199 162 147 134 119 109 109 112
113 120 117 118 119 122 126 131 135 140 144 147 152 152 150 146 144 144 143 142 141 141 144 145 142 139 142 144 144 154 175 199 221 239 238 209 152 147 142 130 121 116 117
110 109 113 119 119 124 130 137 142 144 147 152 153 158 156 154 154 153 153 157 156 155 158 161 160 158 164 175 184 196 218 237 247 253 252 160 135 144 142 136 131 131 136
108 109 116 121 123 126 132 143 147 148 150 157 159 164 163 162 163 166 170 173 173 172 172 177 179 178 183 193 206 213 230 248 258 254 234 159 130 140 140 140 147 154 163
110 114 120 126 128 131 134 141 145 148 153 158 164 170 171 172 173 176 181 185 188 190 192 193 194 195 200 204 215 226 237 251 259 266 253 150 135 142 145 152 162 169 178
105 114 123 131 134 137 139 142 147 148 156 163 171 177 181 181 181 184 185 189 194 199 206 209 207 211 216 217 222 232 244 257 257 255 231 135 144 151 157 164 175 183 193
106 116 128 134 139 143 144 149 150 152 162 169 180 189 190 189 192 197 195 199 202 207 214 217 219 222 225 225 228 233 242 253 267 259 227 141 154 158 163 171 181 191 200
109 116 121 123 132 150 154 160 161 163 169 176 188 196 200 200 202 203 202 205 208 211 218 223 226 228 231 229 229 233 240 251 253 251 191 149 156 163 168 175 185 195 201
107 113 116 118 127 148 151 153 167 168 177 187 195 201 203 208 206 202 212 202 208 215 223 228 230 232 235 233 231 234 238 241 240 229 169 157 164 169 177 184 193 202 207
104 107 110 105 112 117 114 134 166 172 169 196 191 191 207 216 218 216 191 200 211 219 227 232 235 236 237 232 227 228 232 237 243 200 174 168 169 172 180 190 199 206 212
105 91 96 96 86 56 81 126 159 168 162 194 194 205 218 220 225 204 184 196 213 220 225 227 229 231 229 227 217 216 228 235 224 191 175 171 171 177 187 195 204 209 212
110 100 100 103 94 83 73 84 137 130 157 175 169 207 223 219 211 183 202 201 216 220 223 224 224 230 234 237 232 227 229 238 229 171 174 173 174 181 192 200 206 210 213
94 84 68 74 90 85 73 45 69 50 198 170 156 179 218 231 220 204 224 222 230 220 218 238 237 237 240 238 245 241 238 242 239 200 171 176 178 184 192 202 206 209 213
82 71 68 92 99 91 93 348 7 194 163 154 134 148 228 243 252 253 239 244 243 231 227 234 247 238 238 246 244 245 250 254 243 224 186 181 186 189 195 202 206 208 213
86 77 65 98 93 94 89 298 350 325 41 77 146 182 228 266 265 266 250 247 254 244 230 230 244 249 240 242 243 245 244 249 236 229 218 195 192 199 201 204 204 207 213
89 84 66 56 94 97 69 335 342 341 345 320 311 172 196 248 265 269 263 266 268 256 236 228 235 243 247 248 244 240 231 222 230 221 225 215 200 200 203 202 202 205 211
99 103 84 51 83 93 146 153 319 323 326 323 329 335 260 257 272 271 269 270 269 268 259 251 229 242 255 255 255 240 232 223 222 227 225 224 210 198 190 194 201 205 208
99 111 114 104 99 134 195 166 269 297 294 298 303 285 293 266 268 276 259 263 267 264 257 257 247 248 248 249 259 255 239 223 219 220 225 224 208 204 199 193 191 206 211
105 107 130 118 93 98 300 303 285 280 284 281 259 269 273 271 269 269 279 273 266 256 249 248 243 239 236 243 254 267 256 227 224 215 216 216 219 214 198 187 187 192 201
110 108 100 79 64 340 330 283 265 278 272 256 258 258 253 261 264 263 256 266 262 257 251 245 235 244 242 220 220 239 246 239 235 226 213 204 215 217 205 202 194 193 194
115 115 100 92 76 314 305 278 287 283 276 266 279 271 274 274 265 275 266 262 263 254 249 250 234 232 243 235 212 210 220 224 240 220 225 213 199 203 216 210 198 195 198
126 121 113 103 91 286 293 283 288 279 287 290 281 277 280 267 266 267 263 256 255 258 248 252 242 240 237 241 232 226 231 231 224 233 235 222 209 203 212 218 210 193 188
105 104 100 104 80 302 284 265 274 292 299 301 299 282 280 269 258 255 251 251 249 251 251 252 249 235 238 243 245 237 239 244 238 231 236 226 227 213 204 213 220 195 187
81 91 91 97 77 307 293 292 279 289 290 287 291 287 282 281 274 275 271 255 249 247 250 248 245 238 238 243 249 249 240 234 236 236 238 230 223 224 205 206 218 209 194